Rochester/St. Mary\'s Hospita, MN

8:13 PM CST on December 09, 2019 (GMT -0600)
Rochester/St. Mary\'s Hospita

Weather History for K9MN - October, 2019

Change the Weather History Date:

Sunday, October 27, 2019

  Actual Average (KRST) Record (KRST)
Temperature  
Mean Temperature 38 °F -  
Max Temperature 45 °F 55 °F 77 °F (1940)
Min Temperature 32 °F 35 °F 13 °F (1936)
Degree Days  
Heating Degree Days 26    
Moisture  
Dew Point 32 °F    
Average Humidity 78    
Maximum Humidity 90    
Minimum Humidity 64    
Precipitation  
Precipitation 0.00 in - - ()
Sea Level Pressure  
Sea Level Pressure 29.88 in    
Wind  
Wind Speed 5 mph (WNW)    
Max Wind Speed 16 mph    
Max Gust Speed 21 mph    
Visibility 10 miles    
Events      
Averages and records for this station are not official NWS values.
T = Trace of Precipitation, MM = Missing Value Source: NWS Daily Summary

Daily Weather History Graph

Daily Weather History Graph

Search for Another Location

Airport or City:

Astronomy

Oct. 27, 2019 Rise Set
Actual Time 7:39 AM CDT 6:07 PM CDT
Civil Twilight 7:09 AM CDT 6:37 PM CDT
Nautical Twilight 6:36 AM CDT 7:10 PM CDT
Astronomical Twilight 6:02 AM CDT 7:44 PM CDT
Moon 6:45 AM CDT (10/27) 6:19 PM CDT (10/27)
Length of Visible Light 11h 27m
Length of Day
10h 27m
Waning Crescent, 0% of the Moon is Illuminated
Oct 27
Waning Crescent
Oct 27
New
Nov 4
First Quarter
Nov 12
Full
Nov 19
Last Quarter

Hourly Weather History & Observations

Time (CDT) Temp. Windchill Dew Point Humidity Pressure Visibility Wind Dir Wind Speed Gust Speed Precip Events Conditions
12:15 AM 36.5 °F - 27.9 °F 71% 29.71 in 10.0 mi Calm Calm - N/A   Clear
12:35 AM 34.9 °F - 28.9 °F 79% 29.72 in 10.0 mi Calm Calm - N/A   Clear
12:55 AM 35.2 °F - 28.9 °F 78% 29.72 in 10.0 mi Calm Calm - N/A   Clear
12:56 AM 35.2 °F - 28.9 °F 78% 29.72 in 10.0 mi Calm Calm - N/A   Clear
1:15 AM 34.3 °F - 28.4 °F 79% 29.72 in 10.0 mi Calm Calm - N/A   Clear
1:16 AM 34.2 °F - 28.4 °F 79% 29.72 in 10.0 mi Calm Calm - N/A   Clear
1:35 AM 32.5 °F - 28.4 °F 85% 29.72 in 10.0 mi Calm Calm - N/A   Clear
1:55 AM 32.9 °F - 28.4 °F 84% 29.71 in 10.0 mi Calm Calm - N/A   Clear
2:15 AM 32.9 °F 29.8 °F 27.9 °F 82% 29.71 in 10.0 mi SE 3.5 mph - N/A   Clear
2:16 AM 32.9 °F 29.8 °F 27.9 °F 82% 29.71 in 10.0 mi SE 3.5 mph - N/A   Clear
2:35 AM 33.6 °F 30.6 °F 27.9 °F 79% 29.71 in 10.0 mi SSE 3.5 mph - N/A   Clear
2:36 AM 33.6 °F - 28.0 °F 80% 29.71 in 10.0 mi Calm Calm - N/A   Clear
2:55 AM 32.7 °F 28.3 °F 27.3 °F 81% 29.71 in 10.0 mi SE 4.6 mph - N/A   Clear
2:56 AM 32.7 °F 29.6 °F 27.3 °F 81% 29.71 in 10.0 mi SE 3.5 mph - N/A   Clear
3:15 AM 32.0 °F 28.7 °F 27.5 °F 83% 29.71 in 10.0 mi SE 3.5 mph - N/A   Clear
3:35 AM 32.9 °F - 28.6 °F 84% 29.72 in 10.0 mi Calm Calm - N/A   Clear
3:36 AM 32.9 °F - 28.6 °F 84% 29.73 in 10.0 mi Calm Calm - N/A   Clear
3:55 AM 33.1 °F - 28.4 °F 83% 29.73 in 10.0 mi Calm Calm - N/A   Clear
3:56 AM 33.1 °F - 28.4 °F 83% 29.73 in 10.0 mi Calm Calm - N/A   Clear
4:15 AM 33.8 °F - 29.3 °F 84% 29.74 in 10.0 mi Calm Calm - N/A   Clear
4:16 AM 33.8 °F - 29.3 °F 84% 29.75 in 10.0 mi Calm Calm - N/A   Clear
4:35 AM 33.6 °F 30.6 °F 28.9 °F 83% 29.75 in 10.0 mi ESE 3.5 mph - N/A   Clear
4:55 AM 32.0 °F - 28.4 °F 87% 29.76 in 10.0 mi Calm Calm - N/A   Clear
5:15 AM 33.1 °F - 29.1 °F 85% 29.77 in 10.0 mi Calm Calm - N/A   Clear
5:16 AM 33.1 °F - 29.1 °F 85% 29.77 in 10.0 mi Calm Calm - N/A   Clear
5:35 AM 34.2 °F - 30.0 °F 85% 29.78 in 10.0 mi Calm Calm - N/A   Clear
5:36 AM 34.2 °F - 30.0 °F 85% 29.79 in 10.0 mi Calm Calm - N/A   Clear
5:55 AM 34.5 °F - 30.2 °F 84% 29.79 in 10.0 mi Calm Calm - N/A   Clear
6:15 AM 34.7 °F - 30.6 °F 85% 29.79 in 10.0 mi Calm Calm - N/A   Clear
6:35 AM 34.2 °F 29.0 °F 30.7 °F 87% 29.80 in 10.0 mi WSW 5.8 mph - N/A   Clear
6:36 AM 34.2 °F 29.0 °F 30.7 °F 87% 29.80 in 10.0 mi WSW 5.8 mph - N/A   Clear
6:55 AM 34.0 °F 31.0 °F 31.1 °F 89% 29.80 in 10.0 mi West 3.5 mph - N/A   Clear
6:56 AM 34.0 °F 31.0 °F 31.1 °F 89% 29.79 in 10.0 mi West 3.5 mph - N/A   Clear
7:15 AM 34.2 °F 29.0 °F 31.5 °F 90% 29.80 in 10.0 mi West 5.8 mph - N/A   Clear
7:35 AM 34.0 °F 31.0 °F 31.5 °F 90% 29.80 in 10.0 mi West 3.5 mph - N/A   Clear
7:55 AM 34.2 °F 31.2 °F 31.6 °F 90% 29.80 in 10.0 mi WSW 3.5 mph - N/A   Clear
7:56 AM 34.2 °F 31.2 °F 31.6 °F 90% 29.80 in 10.0 mi West 3.5 mph - N/A   Clear
8:15 AM 33.8 °F 27.7 °F 31.1 °F 90% 29.82 in 10.0 mi West 6.9 mph - N/A   Clear
8:16 AM 33.8 °F 27.0 °F 31.1 °F 90% 29.81 in 10.0 mi West 8.1 mph - N/A   Clear
8:35 AM 34.3 °F 28.4 °F 31.8 °F 90% 29.83 in 10.0 mi West 6.9 mph - N/A   Clear
8:55 AM 35.4 °F 29.7 °F 32.0 °F 87% 29.86 in 10.0 mi West 6.9 mph - N/A   Clear
9:15 AM 36.9 °F 32.2 °F 32.7 °F 85% 29.87 in 10.0 mi West 5.8 mph - N/A   Clear
9:16 AM 36.9 °F 33.1 °F 32.9 °F 86% 29.87 in 10.0 mi WNW 4.6 mph - N/A   Clear
9:35 AM 37.6 °F 31.6 °F 33.8 °F 86% 29.87 in 10.0 mi NW 8.1 mph 17.3 mph N/A   Clear
9:36 AM 37.8 °F 31.3 °F 33.8 °F 86% 29.87 in 10.0 mi WNW 9.2 mph 17.3 mph N/A   Clear
9:55 AM 38.7 °F 31.4 °F 34.5 °F 85% 29.89 in 10.0 mi WNW 11.5 mph 18.4 mph N/A   Clear
10:15 AM 40.8 °F 34.1 °F 35.6 °F 82% 29.88 in 10.0 mi NW 11.5 mph 17.3 mph N/A   Mostly Cloudy
10:35 AM 41.9 °F 35.4 °F 35.8 °F 79% 29.90 in 10.0 mi NW 11.5 mph 17.3 mph N/A   Mostly Cloudy
10:36 AM 42.1 °F 35.2 °F 35.8 °F 78% 29.90 in 10.0 mi NW 12.7 mph 17.3 mph N/A   Mostly Cloudy
10:55 AM 43.0 °F 37.7 °F 35.8 °F 76% 29.90 in 10.0 mi NW 9.2 mph 18.4 mph N/A   Mostly Cloudy
10:56 AM 43.0 °F 36.8 °F 35.8 °F 76% 29.90 in 10.0 mi NW 11.5 mph 17.3 mph N/A   Mostly Cloudy
11:15 AM 43.2 °F 36.6 °F 35.6 °F 75% 29.89 in 10.0 mi NW 12.7 mph 20.7 mph N/A   Overcast
11:55 AM 44.1 °F 39.5 °F 36.0 °F 73% 29.91 in 10.0 mi NW 8.1 mph - N/A   Overcast
11:56 AM 44.1 °F 39.0 °F 36.0 °F 73% 29.91 in 10.0 mi NW 9.2 mph - N/A   Overcast
12:15 PM 44.1 °F 38.6 °F 35.8 °F 73% 29.92 in 10.0 mi NW 10.4 mph - N/A   Overcast
12:16 PM 44.1 °F 38.1 °F 35.8 °F 73% 29.92 in 10.0 mi WNW 11.5 mph - N/A   Overcast
12:35 PM 44.6 °F 39.2 °F 36.0 °F 72% 29.92 in 10.0 mi WNW 10.4 mph - N/A   Overcast
12:55 PM 44.2 °F 38.8 °F 35.6 °F 72% 29.91 in 10.0 mi WNW 10.4 mph 16.1 mph N/A   Overcast
1:15 PM 44.6 °F 39.7 °F 35.6 °F 71% 29.91 in 10.0 mi NW 9.2 mph - N/A   Overcast
1:16 PM 44.6 °F 40.2 °F 35.6 °F 71% 29.91 in 10.0 mi NW 8.1 mph - N/A   Overcast
1:35 PM 44.1 °F 37.7 °F 35.6 °F 72% 29.92 in 10.0 mi WNW 12.7 mph 17.3 mph N/A   Overcast
1:55 PM 45.5 °F 41.3 °F 35.8 °F 69% 29.92 in 10.0 mi WSW 8.1 mph - N/A   Overcast
2:15 PM 44.6 °F 39.2 °F 34.9 °F 69% 29.93 in 10.0 mi WNW 10.4 mph 18.4 mph N/A   Overcast
2:16 PM 44.6 °F 39.2 °F 34.9 °F 69% 29.93 in 10.0 mi WNW 10.4 mph 18.4 mph N/A   Overcast
2:35 PM 43.9 °F 37.5 °F 34.2 °F 69% 29.93 in 10.0 mi WNW 12.7 mph 17.3 mph N/A   Overcast
2:55 PM 43.5 °F 36.7 °F 33.8 °F 69% 29.93 in 10.0 mi WNW 13.8 mph 18.4 mph N/A   Overcast
3:15 PM 43.2 °F 37.0 °F 33.8 °F 70% 29.94 in 10.0 mi WNW 11.5 mph 17.3 mph N/A   Overcast
3:35 PM 42.3 °F 35.1 °F 33.4 °F 71% 29.95 in 10.0 mi WNW 13.8 mph 19.6 mph N/A   Overcast
3:36 PM 42.3 °F 34.8 °F 33.4 °F 71% 29.95 in 10.0 mi WNW 15.0 mph 19.6 mph N/A   Overcast
3:55 PM 42.1 °F 35.2 °F 33.1 °F 70% 29.96 in 10.0 mi WNW 12.7 mph 19.6 mph N/A   Overcast
3:56 PM 41.9 °F 35.4 °F 33.1 °F 71% 29.96 in 10.0 mi WNW 11.5 mph 19.6 mph N/A   Overcast
4:15 PM 42.1 °F 36.1 °F 32.9 °F 70% 29.97 in 10.0 mi WNW 10.4 mph 17.3 mph N/A   Overcast
4:35 PM 42.4 °F 37.0 °F 33.1 °F 69% 29.97 in 10.0 mi WNW 9.2 mph - N/A   Overcast
4:36 PM 42.4 °F 37.5 °F 33.1 °F 69% 29.97 in 10.0 mi WNW 8.1 mph - N/A   Overcast
4:55 PM 43.0 °F 39.5 °F 33.4 °F 69% 29.97 in 10.0 mi WNW 5.8 mph - N/A   Overcast
4:56 PM 43.0 °F 38.8 °F 33.4 °F 69% 29.97 in 10.0 mi NW 6.9 mph - N/A   Overcast
5:15 PM 43.2 °F 39.0 °F 32.9 °F 67% 29.98 in 10.0 mi WNW 6.9 mph 16.1 mph N/A   Overcast
5:35 PM 43.3 °F 37.2 °F 32.0 °F 64% 29.97 in 10.0 mi WNW 11.5 mph - N/A   Overcast
5:55 PM 42.8 °F 35.1 °F 32.0 °F 66% 29.97 in 10.0 mi WNW 16.1 mph - N/A   Overcast
5:56 PM 42.8 °F 35.4 °F 32.0 °F 66% 29.97 in 10.0 mi NW 15.0 mph 20.7 mph N/A   Overcast
6:35 PM 41.9 °F 35.4 °F 31.3 °F 66% 29.98 in 10.0 mi NW 11.5 mph 17.3 mph N/A   Overcast
6:55 PM 41.0 °F 34.7 °F 31.1 °F 68% 29.99 in 10.0 mi NW 10.4 mph 17.3 mph N/A   Overcast
6:56 PM 41.0 °F 33.9 °F 31.1 °F 68% 29.99 in 10.0 mi NW 12.7 mph 18.4 mph N/A   Overcast
7:15 PM 40.3 °F 33.4 °F 30.6 °F 68% 29.99 in 10.0 mi WNW 11.5 mph - N/A   Mostly Cloudy
7:16 PM 40.3 °F 33.4 °F 30.6 °F 68% 29.99 in 10.0 mi WNW 11.5 mph - N/A   Mostly Cloudy
7:35 PM 39.4 °F 33.2 °F 30.9 °F 72% 30.00 in 10.0 mi WNW 9.2 mph - N/A   Scattered Clouds
7:55 PM 38.5 °F 34.1 °F 31.1 °F 75% 30.00 in 10.0 mi WNW 5.8 mph - N/A   Clear
8:15 PM 38.3 °F 33.9 °F 31.3 °F 76% 30.00 in 10.0 mi West 5.8 mph - N/A   Scattered Clouds
8:16 PM 38.3 °F 33.9 °F 31.3 °F 76% 30.00 in 10.0 mi WNW 5.8 mph - N/A   Scattered Clouds
8:35 PM 39.0 °F 35.7 °F 31.8 °F 75% 30.01 in 10.0 mi West 4.6 mph - N/A   Overcast
8:36 PM 39.0 °F 34.8 °F 31.8 °F 75% 30.01 in 10.0 mi West 5.8 mph - N/A   Overcast
8:55 PM 39.2 °F 35.9 °F 32.0 °F 75% 30.02 in 10.0 mi West 4.6 mph - N/A   Overcast
9:15 PM 39.2 °F 34.2 °F 32.0 °F 75% 30.02 in 10.0 mi West 6.9 mph - N/A   Overcast
9:35 PM 39.4 °F 33.8 °F 32.5 °F 76% 30.03 in 10.0 mi West 8.1 mph - N/A   Overcast
9:36 PM 39.4 °F 33.8 °F 32.5 °F 76% 30.03 in 10.0 mi West 8.1 mph - N/A   Overcast
9:55 PM 39.2 °F 32.5 °F 32.0 °F 75% 30.04 in 10.0 mi West 10.4 mph 16.1 mph N/A   Overcast
9:56 PM 39.0 °F 33.4 °F 32.0 °F 76% 30.04 in 10.0 mi West 8.1 mph 16.1 mph N/A   Overcast
10:15 PM 38.8 °F 32.6 °F 32.0 °F 76% 30.04 in 10.0 mi West 9.2 mph - N/A   Overcast
10:35 PM 38.5 °F 31.1 °F 31.3 °F 75% 30.05 in 10.0 mi WNW 11.5 mph 18.4 mph N/A   Overcast
10:55 PM 38.3 °F 31.4 °F 31.5 °F 76% 30.05 in 10.0 mi West 10.4 mph 18.4 mph N/A   Overcast
10:56 PM 38.3 °F 30.9 °F 31.3 °F 76% 30.05 in 10.0 mi West 11.5 mph 18.4 mph N/A   Overcast
11:15 PM 37.6 °F 32.3 °F 30.4 °F 75% 30.05 in 10.0 mi WNW 6.9 mph 16.1 mph N/A   Overcast
11:35 PM 37.0 °F 31.0 °F 30.4 °F 77% 30.05 in 10.0 mi West 8.1 mph - N/A   Overcast
11:55 PM 36.7 °F 31.2 °F 29.3 °F 75% 30.06 in 10.0 mi West 6.9 mph - N/A   Overcast
11:56 PM 36.7 °F 31.2 °F 29.1 °F 74% 30.06 in 10.0 mi WNW 6.9 mph - N/A   Overcast